Regional Weather Roundup
Issued by NWS Albany, NY

Home | Current Version | Previous Version | Text Only | Print | Product List | Glossary On
Versions: 1 2 3 4 5 6 7 8 9 10 11 12 13 14 15 16 17 18 19 20 21 22 23 24 25 26 27
000
ASUS41 KALY 031410
RWRALY

NEW YORK STATE HOURLY WEATHER ROUNDUP
NATIONAL WEATHER SERVICE ALBANY NY
1000 AM EDT TUE MAY 03 2016

NOTE: "FAIR" INDICATES FEW OR NO CLOUDS BELOW 12,000 FEET WITH NO
SIGNIFICANT WEATHER AND/OR NO OBSTRUCTIONS TO VISIBILITY.

NYZ032-033-038>043-046>054-057>066-NYZ062>081-082-084-031500-
EAST


CITY           SKY/WX    TMP DP  RH WIND       PRES   REMARKS
ALBANY         CLOUDY    49  42  77 N9        29.92F
GLENS FALLS    CLOUDY    48  41  76 N3        29.93F
POUGHKEEPSIE   CLOUDY    53  48  83 N7        29.88F
NEWBURGH       LGT RAIN  50  50 100 E9        29.88F FOG
MONTGOMERY     LGT RAIN  50  48  93 NE9       29.87F
WHITE PLAINS   LGT RAIN  51  49  92 E7        29.85F FOG
ISLIP          LGT RAIN  53  50  89 E8        29.86S FOG
NEW YORK CITY  LGT RAIN  54  50  86 NE18      29.85F
CENTRAL PARK   LGT RAIN  52  49  89 E8        29.88F FOG
$$

NYZ005>009-017-018-044>046-055-056-031500-
CENTRAL


CITY           SKY/WX    TMP DP  RH WIND       PRES   REMARKS
FULTON         MOSUNNY   54  42  64 N7        29.92F
SYRACUSE       CLOUDY    46  43  89 VRB3      29.92F
ROME           CLOUDY    47  43  86 SW5       29.92F
ELMIRA         CLOUDY    48  41  76 NE6       29.88F
BINGHAMTON     CLOUDY    44  40  85 NE8       29.86F
MONTICELLO     CLOUDY    46  45  93 E8        29.87F
$$

NYZ026>034-041>043-087-031500-
NORTH


CITY           SKY/WX    TMP DP  RH WIND       PRES   REMARKS
WATERTOWN      PTSUNNY   49  42  77 NE10      29.92F
FORT DRUM      NOT AVBL
MASSENA        CLOUDY    43  40  89 CALM      29.97F
SARANAC LAKE   PTSUNNY   45  35  68 NE7       29.89F
PLATTSBURGH    NOT AVBL
$$

NYZ001>004-010>016-019>021-085-031500-
WEST


CITY           SKY/WX    TMP DP  RH WIND       PRES   REMARKS
NIAGARA FALLS  MOSUNNY   53  41  63 NE8       29.90F
BUFFALO        MOSUNNY   50  41  71 E7        29.90S
DUNKIRK        CLOUDY    48  43  82 N8        29.89F
JAMESTOWN      CLOUDY    45  39  81 N5        29.86S
WELLSVILLE     CLOUDY    45  40  82 VRB6      29.87F
ROCHESTER      CLOUDY    51  43  74 VRB7      29.92S
PENN YAN       CLOUDY    44  43  96 CALM      29.91F FOG
$$

             KEY
       WCI = WIND CHILL INDEX
       VSB = VISIBILITY
       HX  = HEAT INDEX
$$




USA.gov is the U.S. government's official web portal to all federal, state and local government web resources and services.